Theta_e
302 298 296 296 296 296 296 296 296 296 296 298 298 299 299 300 300 300 301 301 301 301 301 301 301 301 302 302 302 302 302 307 309 306 307 307 306 306 306 306 305 306 306 306 306 304 306 309 308 308 307 307 308 311 311 312 317 320 326 331 327 325 324 326 331 331 328 326 324 323 322 321 320 319 318 317 315 314 313 311 309 307 306 305 305 304 303 306
302 300 296 295 295 295 295 295 296 295 297 298 299 299 300 300 300 300 300 301 301 301 301 301 301 302 303 302 303 302 302 307 308 306 307 305 303 305 306 305 303 304 306 307 306 304 305 307 307 308 308 307 309 311 310 312 316 320 324 326 325 326 327 329 329 327 326 325 324 323 322 322 322 321 319 317 314 313 313 311 310 308 306 305 304 304 304 306
302 300 296 295 295 295 295 295 296 296 298 299 299 299 299 300 300 300 300 301 301 301 301 301 301 302 302 302 302 302 304 309 307 305 305 303 304 306 305 303 303 304 307 307 305 305 304 305 306 307 309 308 308 310 309 312 316 318 320 319 323 329 330 328 327 326 325 324 324 324 322 323 322 319 316 313 311 308 307 307 308 307 305 304 303 304 304 306
302 301 298 296 295 295 295 295 296 297 298 299 299 299 299 299 299 299 300 300 301 301 301 301 302 303 302 302 302 303 308 310 306 304 303 303 305 306 304 303 303 304 306 305 304 305 304 305 306 307 310 308 307 309 308 311 315 316 316 318 324 331 330 327 326 325 324 324 323 321 320 319 317 316 316 315 315 309 304 303 303 304 303 302 303 304 305 305
302 300 297 296 295 295 295 296 296 297 299 299 299 299 299 299 299 299 300 301 301 301 302 302 302 302 303 302 302 306 310 309 304 303 302 303 305 304 303 303 304 304 305 305 304 305 304 305 306 307 309 308 307 309 309 310 313 314 318 323 327 328 327 325 324 324 323 322 320 317 316 313 310 310 311 312 312 307 303 302 301 301 302 301 302 304 305 305
300 298 296 296 295 295 295 296 297 298 299 299 299 299 298 299 299 299 301 301 301 301 302 302 303 302 303 302 302 306 309 306 303 302 302 303 305 305 304 304 304 305 305 305 305 305 304 306 306 307 308 308 308 307 309 312 310 315 322 325 325 325 323 321 320 321 320 318 317 315 312 310 308 306 304 304 305 302 302 301 301 301 301 301 303 304 305 305
298 296 296 296 296 296 296 296 297 298 299 299 299 299 298 298 298 299 300 301 301 301 302 302 302 302 302 303 306 308 306 303 301 301 302 303 306 306 305 306 305 305 305 305 305 305 306 307 307 308 307 307 308 307 310 312 311 318 324 324 323 323 321 320 318 317 316 315 314 313 312 310 310 308 304 303 302 301 301 301 301 301 301 302 302 304 305 305
297 296 296 296 296 296 296 296 297 298 299 298 299 298 298 298 298 298 299 300 301 301 302 302 302 303 302 303 309 309 303 301 301 301 302 303 306 307 306 306 305 304 304 305 305 304 306 306 308 309 307 307 308 307 311 313 315 322 324 322 322 321 319 317 316 315 314 313 312 311 311 309 308 307 304 303 302 301 301 301 301 302 301 302 302 302 304 305
297 297 297 297 296 296 296 296 297 298 298 298 299 298 299 298 298 298 298 300 301 301 302 302 302 302 303 306 310 308 302 301 301 301 302 303 306 307 306 305 304 304 305 305 304 305 306 307 309 310 309 310 308 308 312 314 319 322 321 320 319 318 317 316 315 314 313 312 311 311 311 309 309 309 306 303 303 302 302 302 302 302 301 301 302 302 303 304
300 299 299 299 297 296 296 296 297 298 298 298 298 298 298 298 298 298 298 299 300 301 301 301 302 301 305 309 308 305 302 301 301 302 303 304 306 307 305 304 304 305 306 305 305 306 308 309 310 310 310 310 309 311 313 315 319 319 318 318 318 317 316 315 315 315 314 313 312 312 311 310 309 311 308 304 302 303 302 302 302 302 301 300 301 302 302 303
303 302 300 300 299 297 296 296 296 297 298 298 298 298 298 298 298 298 299 299 300 301 300 301 301 301 306 308 304 303 301 301 302 302 303 305 306 306 305 305 304 305 306 306 305 306 308 309 310 309 309 310 311 313 314 316 318 318 317 318 318 318 317 317 316 316 314 313 312 311 311 309 307 308 306 304 303 303 303 303 303 302 301 301 301 302 302 301
303 302 299 300 301 298 296 296 297 297 298 298 299 299 298 298 298 298 300 300 300 300 300 301 301 302 307 306 301 301 301 301 302 302 304 306 306 307 306 306 305 304 306 307 306 306 307 309 310 310 310 311 313 315 316 317 317 317 317 318 318 317 317 316 317 316 314 314 313 315 318 312 306 305 304 303 303 304 304 303 303 302 301 301 301 301 301 301
303 301 299 301 302 299 296 296 297 297 297 298 298 299 298 298 298 299 300 300 300 301 300 301 301 304 308 305 301 301 301 302 302 302 305 306 306 307 307 306 306 305 305 306 306 306 308 309 310 311 312 312 314 316 318 316 316 317 317 318 318 318 317 314 316 316 314 316 316 319 324 314 306 305 303 303 303 303 304 304 303 303 302 302 302 301 300 300
303 301 299 301 302 299 297 297 298 297 297 297 298 298 298 298 299 300 300 300 300 301 301 301 303 306 308 304 302 302 301 302 302 302 305 306 307 307 307 307 306 306 305 305 306 306 308 309 310 312 312 312 314 315 316 316 317 317 318 319 319 321 318 313 314 317 316 318 316 319 322 312 306 305 303 303 303 303 304 303 303 303 303 303 303 302 302 300
303 301 299 299 300 298 297 298 298 297 297 297 297 298 299 300 300 300 300 300 300 300 301 304 305 306 306 303 302 302 301 302 302 302 304 306 307 307 307 306 305 305 305 306 306 307 308 310 312 313 313 313 313 315 316 317 317 317 320 323 321 320 318 312 312 315 317 317 316 319 318 310 306 304 303 303 303 303 303 302 303 303 304 304 303 303 302 301
303 302 299 297 298 298 298 298 298 298 297 297 298 298 299 300 301 301 300 300 300 300 303 304 303 304 305 303 303 302 301 301 302 302 303 305 306 307 307 305 305 305 305 306 307 308 309 310 312 313 313 314 314 315 316 317 319 318 320 323 321 319 317 315 313 312 315 317 315 316 315 310 307 303 303 303 303 303 303 302 302 303 304 304 304 303 302 302
303 302 299 297 297 297 297 298 299 298 297 297 298 298 299 299 301 302 302 302 301 301 302 302 301 304 304 302 302 301 300 300 302 302 303 305 306 306 306 305 305 305 306 308 308 309 310 311 313 312 312 314 314 316 316 319 320 319 319 322 319 318 317 317 315 313 315 316 313 312 311 309 306 303 303 303 303 303 303 303 302 303 303 303 304 304 303 303
303 302 300 297 297 297 297 298 299 298 297 298 298 298 298 298 300 301 302 304 304 303 303 301 301 304 303 302 302 300 299 300 301 302 303 306 305 306 306 305 305 306 308 309 309 310 310 311 311 312 313 314 314 315 316 318 319 318 319 320 319 318 318 317 317 315 314 314 311 310 308 305 303 303 303 302 302 303 303 303 303 303 303 303 304 303 303 302
302 302 302 299 296 297 297 297 299 299 297 298 299 298 298 299 300 301 301 302 303 303 302 301 302 302 302 302 301 299 299 300 302 303 304 305 305 306 306 305 307 308 308 308 309 309 309 310 311 313 314 313 314 315 316 318 318 317 318 319 319 319 318 317 316 315 314 313 312 310 307 305 303 303 302 302 302 303 303 303 304 303 303 304 304 304 303 302
301 300 301 300 297 296 297 297 299 299 298 299 302 302 301 302 303 302 300 300 302 302 302 302 302 301 301 301 300 299 300 303 303 304 305 304 304 306 305 306 308 308 308 308 309 309 308 311 311 312 312 310 311 311 311 315 317 317 319 319 318 317 316 315 315 314 313 313 312 309 307 305 304 303 303 302 302 303 303 304 305 304 304 304 304 304 304 302
299 298 298 299 297 296 296 297 300 299 298 299 303 306 306 307 309 305 301 300 301 301 302 302 302 302 300 300 300 299 300 304 304 304 304 303 305 306 306 307 307 307 308 308 309 309 309 310 309 309 308 306 308 308 310 317 320 318 319 317 315 314 313 313 312 312 311 313 311 308 307 305 303 303 303 303 303 304 304 305 306 306 305 305 304 304 304 302
299 297 296 297 297 296 296 298 299 298 298 299 302 307 308 306 306 304 303 302 301 300 301 301 302 302 301 301 300 299 301 304 305 305 303 304 306 306 306 307 307 307 308 308 309 310 310 309 307 307 307 307 309 312 316 321 319 317 316 314 313 312 312 312 312 311 311 312 311 308 307 305 303 303 303 303 304 305 305 305 306 306 305 305 305 304 303 302
298 296 296 297 297 296 297 298 298 299 302 305 306 308 305 301 300 301 304 304 301 299 301 302 302 301 301 301 300 300 303 304 304 305 303 304 306 306 307 307 307 308 308 308 308 310 310 309 306 306 307 309 314 316 319 319 316 315 314 313 312 313 313 313 312 312 311 311 310 309 308 306 304 304 303 304 304 304 304 303 304 304 304 305 305 304 303 302
298 295 296 297 296 296 297 299 300 301 303 305 305 303 301 300 299 301 306 305 302 301 301 301 302 300 300 301 299 301 304 304 304 304 303 305 306 307 308 307 307 308 308 308 308 309 309 307 306 307 310 314 317 317 317 316 315 315 314 313 314 314 314 313 311 311 311 311 311 312 314 312 308 307 306 305 304 303 302 302 303 303 303 303 303 303 302 301
296 296 297 296 296 296 298 302 302 301 304 304 302 300 299 300 299 299 305 305 302 303 301 301 302 300 299 300 301 302 305 304 304 304 304 304 305 307 308 307 308 309 309 309 309 308 308 307 308 310 312 314 316 315 315 315 315 315 315 315 314 313 312 312 313 314 314 315 314 315 322 321 312 310 310 308 305 304 304 304 304 304 304 302 302 302 302 300
296 297 297 296 297 297 301 306 301 300 305 303 300 299 299 300 298 299 305 306 303 303 302 301 302 301 300 301 303 304 305 305 304 304 304 304 305 306 307 307 307 309 309 308 308 308 307 307 310 311 311 313 315 315 313 314 315 316 316 316 315 313 313 315 317 318 318 318 314 312 320 324 316 313 313 310 307 307 307 306 305 306 305 303 302 301 301 300
297 297 296 296 297 298 304 305 300 302 307 303 299 299 299 300 299 300 305 307 304 302 301 302 302 301 301 302 303 304 305 305 303 304 304 305 306 306 307 308 308 308 308 308 309 307 305 307 309 311 312 313 314 314 311 311 315 316 315 314 315 315 317 319 319 319 317 317 315 312 316 321 321 318 314 312 310 310 310 309 307 307 306 304 302 301 300 299
297 297 296 296 298 299 302 303 303 306 305 301 299 298 300 300 300 303 308 307 303 301 301 302 301 300 301 303 304 304 304 304 305 305 304 305 306 307 308 308 308 308 307 308 309 306 305 306 307 309 311 311 309 309 309 311 314 315 314 315 316 317 319 320 318 318 318 318 319 316 314 319 323 320 315 314 313 313 313 311 310 308 307 306 303 301 300 300
297 297 296 297 299 299 299 301 303 304 300 298 299 299 299 299 300 306 309 304 301 300 302 303 301 300 302 303 304 304 303 304 305 305 305 305 306 307 308 307 307 307 307 307 307 306 305 305 305 307 309 310 309 309 312 314 314 314 315 316 317 317 319 319 318 319 320 321 321 317 313 317 322 320 317 316 316 315 315 313 312 310 310 308 304 302 301 301
297 297 295 296 299 300 300 301 300 299 299 298 299 298 297 299 303 307 305 301 301 300 301 303 302 301 302 303 302 303 303 303 304 304 305 305 304 305 307 308 308 308 307 307 307 307 306 305 305 306 306 308 310 312 314 314 313 315 316 317 319 319 319 320 320 320 322 322 317 313 311 314 320 321 317 316 316 315 315 315 315 313 313 310 305 303 303 301
297 297 296 296 297 298 303 304 300 298 298 297 298 298 300 303 306 304 300 301 304 302 300 302 302 301 302 302 301 302 303 303 303 304 305 303 303 303 304 307 308 309 309 308 308 307 306 305 306 307 305 305 309 312 312 314 314 316 317 317 319 320 320 321 321 320 322 321 314 310 311 313 319 322 319 316 316 316 317 317 316 315 315 311 305 304 304 302
297 297 296 296 296 298 301 302 299 297 297 298 300 302 304 305 303 301 300 302 304 301 299 301 301 301 302 302 302 302 302 303 303 304 304 303 303 301 302 303 304 308 311 310 310 308 307 305 304 306 306 303 308 313 313 315 317 316 317 318 320 321 320 322 322 321 320 315 310 309 311 316 317 317 317 316 315 316 316 314 313 314 315 311 307 305 304 303
298 297 297 297 296 296 297 298 297 297 297 299 302 305 305 303 300 300 301 301 300 299 299 301 301 301 302 303 302 301 302 303 302 303 304 303 303 303 302 301 301 307 311 311 310 310 310 308 303 305 307 303 306 313 314 315 316 316 317 318 319 320 319 320 320 320 317 313 310 309 313 319 317 310 310 310 309 310 309 309 310 311 311 309 308 306 305 305
298 298 299 299 297 295 296 297 297 298 299 301 305 308 306 302 300 300 301 301 299 299 300 301 301 302 302 302 301 302 303 303 302 302 302 302 302 303 302 300 301 304 307 309 309 308 310 309 304 303 305 303 303 307 309 311 314 314 314 316 318 318 318 319 319 318 317 314 312 311 314 318 316 310 307 305 306 306 305 306 308 307 307 308 307 306 305 305
299 299 301 300 298 297 296 297 297 297 300 303 305 306 304 301 301 301 301 300 300 300 300 301 301 302 302 301 302 302 303 303 303 301 301 300 300 301 300 300 300 301 303 308 309 306 306 306 303 302 302 301 302 303 304 308 314 313 312 315 317 314 314 316 315 315 316 316 314 314 316 315 311 308 306 305 305 305 304 305 305 305 306 307 307 306 305 304
299 301 303 301 298 297 297 298 297 297 301 307 306 304 301 300 300 300 300 300 300 300 299 301 302 302 302 302 301 302 302 303 303 303 301 300 300 300 300 300 301 300 301 305 306 306 306 304 301 303 302 300 300 303 305 308 313 314 312 312 311 308 311 316 314 312 315 317 314 312 315 312 308 307 306 305 305 304 304 304 303 305 306 306 307 307 306 305
303 303 304 300 296 298 298 297 297 299 305 309 306 303 299 298 299 299 299 299 299 299 300 302 301 300 302 302 301 301 301 302 304 304 302 302 301 300 298 300 301 300 299 301 304 306 306 303 302 303 304 302 301 304 307 306 308 314 313 309 307 306 309 313 315 314 316 317 313 311 313 313 310 309 306 305 306 305 305 305 304 306 307 307 308 308 307 307
304 304 304 300 296 299 300 298 298 303 308 306 303 301 298 298 298 298 297 297 298 299 300 301 301 300 300 301 301 300 301 303 303 303 302 302 302 300 298 299 301 301 299 300 303 304 305 305 304 302 303 304 303 306 309 306 306 311 310 306 308 311 313 313 313 315 316 316 313 310 310 312 312 309 305 304 306 304 304 305 305 306 306 307 308 309 308 308
303 306 307 301 298 300 302 302 302 307 309 306 304 302 299 299 299 296 295 296 296 298 300 300 300 300 299 299 300 300 300 302 301 302 303 301 301 300 298 297 299 299 299 300 301 301 305 309 306 303 304 306 304 305 308 307 306 308 308 305 306 308 310 310 309 310 313 314 313 310 309 310 308 304 303 304 304 305 305 305 305 305 305 305 306 307 308 308
305 310 311 301 298 301 301 303 304 304 305 304 303 299 297 299 300 296 295 296 296 298 300 300 300 300 299 298 299 299 299 300 299 300 301 299 300 300 298 297 298 297 298 301 301 299 306 312 307 303 305 306 304 302 301 303 304 307 307 305 304 303 303 305 304 304 308 312 314 313 310 306 301 300 303 304 304 305 306 305 306 305 304 305 305 306 306 306
306 312 312 301 299 302 303 305 305 303 302 302 301 298 296 299 299 297 296 296 296 298 298 300 300 299 299 299 298 298 299 299 299 299 299 298 299 299 298 297 297 297 299 302 302 300 305 310 308 305 305 304 303 299 298 299 300 302 303 302 302 302 303 306 304 301 303 307 309 310 309 304 300 301 304 304 304 305 305 305 305 305 304 304 305 304 304 304
308 312 308 301 300 302 306 308 304 302 302 300 299 299 298 299 298 297 297 296 297 298 297 298 300 299 299 299 298 298 298 299 299 299 298 297 298 297 297 298 297 297 299 302 301 299 302 306 306 304 301 301 300 297 296 298 297 299 301 301 301 301 304 307 307 304 304 303 303 306 307 304 303 303 305 305 305 305 304 304 304 304 303 303 303 303 303 303
312 311 305 301 299 301 308 310 303 300 299 296 296 297 297 298 298 297 296 296 298 299 298 298 298 299 299 298 298 298 299 299 299 299 298 298 298 296 296 298 298 299 300 302 302 301 301 304 305 302 300 301 300 296 296 297 298 301 302 300 300 301 301 302 303 305 306 305 306 307 306 305 305 304 303 304 303 303 304 303 303 303 303 302 302 302 302 302
312 308 306 303 299 304 314 313 305 300 297 296 297 297 296 297 298 298 297 296 297 298 298 299 299 299 298 297 298 298 299 300 300 300 299 299 300 298 297 298 298 299 301 301 302 302 303 302 303 304 303 303 303 301 301 300 300 302 301 298 298 299 299 300 301 305 306 304 306 308 306 305 305 303 302 302 301 301 302 303 303 302 301 300 301 301 302 302
310 309 309 304 300 306 312 308 305 302 300 300 300 298 298 298 297 298 298 296 296 295 297 298 298 298 298 297 298 298 299 300 301 300 299 299 300 299 298 298 297 298 299 297 297 300 301 300 302 305 306 305 305 305 304 303 301 300 300 299 299 300 300 301 303 306 307 303 303 306 306 303 302 302 302 301 300 300 300 301 301 301 300 301 301 302 302 302
311 312 313 310 305 305 306 303 302 302 301 303 303 299 299 300 299 298 298 298 297 296 296 297 296 298 299 300 299 298 299 299 299 300 299 299 300 299 298 298 297 297 298 297 297 298 300 299 299 304 306 305 304 301 299 301 301 299 300 300 300 300 299 300 303 306 306 305 305 305 304 302 300 301 302 301 301 300 300 300 300 300 301 302 302 302 302 302
312 313 311 311 310 307 306 304 303 303 304 305 304 300 301 302 301 299 299 299 298 296 296 296 297 300 301 302 302 300 299 299 299 300 300 299 299 299 299 298 297 299 299 298 297 299 304 304 298 299 301 298 296 296 296 298 300 299 300 300 300 300 299 299 303 304 302 306 308 304 301 304 302 300 302 302 302 302 301 301 300 300 301 301 301 301 302 302
309 309 302 303 310 311 309 306 305 305 305 304 302 302 302 302 302 301 300 299 297 297 299 299 298 298 298 300 303 303 302 302 301 300 300 300 300 301 302 299 298 300 299 297 296 299 306 307 298 298 301 296 294 296 296 297 299 298 299 299 298 299 299 298 300 300 299 304 307 301 299 304 304 300 300 302 302 301 301 300 300 300 300 301 301 301 302 302
304 305 300 299 306 308 306 305 305 306 305 303 302 302 302 303 304 302 300 299 298 297 299 300 298 296 296 297 300 303 303 304 304 301 299 301 301 300 301 300 299 299 298 298 297 297 305 307 297 297 303 297 294 297 296 296 299 300 300 299 298 299 299 298 300 300 298 300 301 299 298 301 300 299 299 301 302 301 300 300 300 300 301 301 301 302 302 302
304 307 305 303 303 301 301 303 304 307 306 304 304 303 301 304 305 301 298 300 301 299 299 299 298 297 297 298 300 302 300 300 303 301 298 301 303 301 300 299 299 300 299 299 298 298 305 306 294 295 306 301 296 296 295 295 300 304 304 301 298 298 299 298 299 299 298 300 300 298 300 302 301 300 301 302 302 301 301 301 301 301 302 301 301 302 302 302
301 302 303 307 307 302 300 302 303 307 308 306 306 304 302 303 303 301 299 299 300 302 301 300 299 298 297 299 299 299 297 297 299 298 296 299 301 299 299 298 297 299 300 298 298 299 303 302 295 298 310 307 297 295 297 298 300 304 308 307 302 300 301 302 301 300 302 304 302 301 305 308 304 302 303 303 302 303 303 302 302 302 302 302 302 302 302 302
300 300 301 308 311 303 301 303 302 306 311 307 305 305 304 303 303 302 303 300 297 298 299 299 299 298 299 302 300 297 296 295 295 295 294 296 296 295 296 297 295 297 298 298 299 299 299 301 301 304 311 309 299 295 299 303 307 307 310 309 304 301 301 301 301 301 302 303 304 306 308 306 303 302 303 303 303 303 303 302 302 302 303 302 302 302 302 302
Wind_Speed
11 10 10 10 11 12 13 14 14 14 13 12 11 11 12 14 14 12 11 11 10 9 8 9 7 6 7 7 8 7 5 9 4 11 11 8 12 14 16 17 16 16 14 15 13 13 10 2 3 3 4 3 2 2 5 4 2 2 2 2 3 4 4 4 2 10 12 12 11 9 10 13 12 9 8 11 16 14 14 14 12 14 15 14 10 10 13 12
12 12 11 11 12 12 13 13 13 12 12 11 11 12 12 13 14 13 11 10 10 9 8 8 6 6 7 6 8 6 6 8 3 12 9 11 18 18 16 15 13 12 12 13 11 11 10 6 7 6 4 3 3 2 5 3 3 3 2 1 2 1 1 4 8 14 16 15 13 11 11 12 11 9 7 9 11 11 14 12 10 12 12 13 14 15 15 14
13 13 12 12 12 12 12 12 11 11 10 10 10 11 12 14 14 13 11 10 11 9 6 6 6 6 7 7 8 6 5 6 3 9 10 17 23 19 15 12 9 9 10 11 9 9 9 7 8 8 4 3 3 3 4 3 3 3 2 2 1 3 5 8 12 14 16 19 17 13 12 12 11 8 7 11 13 13 11 8 8 10 9 10 12 14 14 14
13 13 13 13 13 13 12 11 9 9 9 8 9 10 12 14 14 13 11 9 10 7 5 5 5 6 8 8 8 6 4 5 3 8 14 22 22 18 12 8 7 8 8 9 8 8 8 8 9 6 4 3 3 4 4 4 3 2 1 2 1 5 7 10 13 14 15 17 17 15 14 12 9 9 8 11 12 10 7 7 8 7 7 7 8 10 12 14
14 14 14 14 14 13 12 10 8 7 7 8 9 10 11 12 13 12 10 9 9 5 4 5 5 7 9 10 9 5 3 2 4 11 18 23 20 15 10 7 7 8 7 9 8 7 7 7 6 4 4 3 5 4 4 7 5 3 0 2 4 8 10 12 12 16 15 15 17 15 13 9 8 11 9 10 10 6 4 6 7 6 6 6 6 8 10 13
14 14 15 15 15 13 12 9 6 6 6 7 9 9 10 11 12 12 9 9 7 3 2 3 4 7 9 9 9 7 3 1 7 14 19 21 17 13 10 8 9 8 7 9 7 6 6 5 4 3 3 2 6 5 5 8 6 3 2 4 8 10 12 11 12 14 13 15 15 12 11 9 12 13 12 15 12 6 6 6 6 6 6 6 7 8 10 11
15 15 16 16 15 13 12 9 6 6 7 8 8 10 10 10 12 12 10 7 4 2 2 3 3 6 9 9 8 6 1 6 12 16 18 19 15 12 12 9 8 8 7 7 7 5 5 3 4 3 4 3 6 6 7 9 6 3 5 7 11 12 13 12 12 13 13 16 14 13 14 10 13 12 9 14 11 7 8 6 6 7 6 7 7 9 10 10
15 15 16 17 16 14 12 9 7 6 8 9 10 11 12 12 12 12 11 6 3 3 3 4 4 5 9 8 6 3 4 8 14 16 18 17 12 11 12 9 6 7 5 5 7 6 5 4 4 3 4 3 6 8 8 10 5 5 9 9 10 12 14 13 13 15 15 15 14 17 17 12 13 12 9 10 8 7 7 5 6 7 6 7 8 9 10 10
15 15 17 17 16 14 12 10 7 8 9 10 11 13 13 14 13 13 13 6 3 3 5 4 4 5 8 8 6 2 3 9 14 15 17 15 12 10 10 9 8 7 4 4 6 6 5 3 3 3 4 3 5 7 9 8 4 8 11 11 12 13 14 13 13 14 14 10 14 19 16 12 11 10 10 8 5 6 6 6 5 5 6 6 7 8 8 9
16 16 17 17 17 14 12 10 8 9 10 11 12 14 15 16 14 14 14 7 4 5 4 5 5 4 7 8 5 1 5 12 12 14 16 12 10 9 9 8 8 8 6 4 5 6 5 5 6 6 5 6 5 5 7 6 8 12 14 15 14 14 11 12 13 13 13 10 14 19 14 9 6 5 6 4 4 5 5 6 4 4 6 5 5 6 7 9
17 17 17 17 17 14 12 10 8 9 10 11 12 14 16 15 14 14 13 7 5 6 5 4 5 4 7 6 3 3 8 13 11 14 14 9 8 8 8 8 6 7 8 4 3 5 7 8 9 5 2 4 2 6 6 9 14 15 17 17 14 14 12 11 13 11 10 9 12 19 16 11 9 6 5 4 4 4 5 5 4 4 5 5 5 5 6 8
18 17 17 17 17 15 12 10 8 8 10 12 11 13 17 16 15 12 8 6 6 6 4 4 4 3 6 3 4 4 10 12 10 13 11 7 6 5 6 6 5 6 7 7 3 3 6 9 10 6 3 3 3 6 7 14 16 14 17 16 12 12 11 8 8 8 8 9 11 14 12 9 8 6 5 4 4 4 5 5 4 4 3 3 3 3 5 7
19 18 17 17 17 16 13 9 8 7 9 11 11 12 17 17 13 6 4 8 6 3 3 3 3 3 4 0 4 6 11 11 10 11 10 7 6 3 4 4 4 4 5 7 4 2 5 7 9 7 6 5 3 7 9 13 13 12 13 12 9 8 6 5 3 8 8 8 6 4 5 4 5 6 5 4 3 4 5 4 4 3 3 3 3 3 4 7
19 18 17 16 17 16 13 9 6 6 7 10 12 10 16 14 7 4 7 12 11 5 1 1 4 3 2 2 4 9 13 10 10 12 11 9 7 3 4 4 3 3 4 6 3 2 5 6 8 6 6 6 4 11 11 9 8 10 10 7 5 6 2 6 2 9 7 4 2 3 3 3 4 5 4 3 2 3 5 4 3 2 3 3 2 3 3 6
19 18 16 16 17 16 13 9 6 6 6 8 10 4 15 16 9 3 5 10 12 11 7 5 7 5 1 3 4 11 15 12 11 12 10 9 8 5 5 6 4 3 3 5 3 3 5 6 6 4 4 4 7 11 9 6 5 7 7 5 4 5 4 3 4 3 3 3 4 2 4 4 5 5 4 3 1 2 5 4 3 1 2 4 4 4 2 3
19 18 15 15 16 15 13 9 6 6 6 6 6 2 13 20 16 7 3 4 6 9 9 9 11 6 1 2 2 11 16 14 12 11 9 7 7 7 6 5 2 2 2 3 3 3 4 4 3 4 3 5 9 8 7 6 5 5 4 6 6 6 6 3 4 6 1 4 0 4 6 4 5 5 4 3 1 2 4 4 4 2 1 3 4 3 4 4
19 17 16 15 16 15 14 10 7 6 5 5 4 7 5 14 18 12 8 7 6 3 4 13 15 3 2 3 3 9 14 14 12 10 9 6 5 6 6 3 1 0 1 2 2 3 3 3 2 3 2 3 5 5 7 7 6 5 4 6 6 8 7 5 2 4 2 6 7 10 9 6 6 6 5 4 1 1 3 4 4 3 2 2 2 3 3 3
18 18 17 16 16 15 14 11 7 6 5 5 4 9 9 4 12 14 16 13 7 3 1 13 14 1 2 5 5 9 14 15 12 11 9 5 4 5 5 3 1 2 3 2 1 2 1 1 1 1 2 1 4 5 6 6 8 8 6 7 7 7 7 6 4 3 3 10 10 10 9 7 8 6 5 4 2 2 2 4 3 2 3 2 2 2 3 3
18 18 17 16 18 16 15 12 7 6 4 3 1 5 8 2 4 9 17 16 7 1 1 7 8 1 2 6 6 10 14 13 11 9 8 5 6 7 4 2 2 2 3 2 0 2 1 0 0 2 1 2 1 2 1 2 6 9 7 10 9 8 7 7 6 4 7 11 8 8 8 8 8 6 5 5 3 2 2 3 2 1 2 2 2 2 3 3
18 18 17 17 18 18 16 13 7 5 3 2 4 3 4 2 1 2 9 11 7 6 5 2 4 2 2 4 7 13 12 8 5 8 8 7 9 9 3 3 2 2 2 3 2 2 1 2 1 1 1 3 4 3 2 4 5 8 11 12 10 10 8 7 7 5 6 7 7 8 9 8 8 6 5 6 4 3 3 3 3 2 2 3 2 3 3 3
19 18 16 17 19 19 17 11 6 4 2 4 5 2 1 0 1 2 3 5 5 6 5 2 4 4 2 3 6 10 7 3 7 9 10 11 8 4 1 2 3 2 2 3 3 2 1 2 2 3 2 4 6 4 5 6 3 7 12 11 9 8 7 6 6 6 5 6 6 8 10 8 6 5 5 5 4 4 4 4 4 5 4 3 2 3 4 4
20 18 16 16 18 20 16 8 4 2 1 3 6 2 2 3 2 3 2 3 4 3 2 1 6 6 4 3 5 8 3 2 8 9 13 14 6 1 2 2 1 4 3 1 2 2 1 2 4 5 4 4 5 3 4 2 5 10 11 9 8 7 7 7 6 6 6 6 6 7 8 7 5 4 4 4 4 4 4 3 2 3 4 4 4 4 4 4
21 19 17 17 18 19 12 4 3 3 4 2 3 0 2 4 6 5 1 1 3 1 2 1 6 7 6 4 7 10 3 5 7 7 14 13 4 1 2 3 3 6 2 1 2 3 2 3 4 6 5 4 2 5 6 8 9 8 8 9 8 7 6 5 5 7 6 5 7 8 7 4 4 3 2 4 3 1 2 1 2 1 2 3 2 2 3 5
21 19 17 18 20 17 7 2 4 4 5 3 3 5 4 5 5 4 0 0 2 1 2 3 4 4 5 3 7 8 3 6 6 7 12 11 5 2 2 4 4 4 3 5 8 7 4 3 4 5 1 1 4 9 7 7 8 6 7 9 9 8 7 7 8 9 9 6 7 8 6 2 2 3 3 3 3 2 1 3 3 3 4 3 1 1 1 3
21 19 18 20 21 12 2 3 4 3 5 4 3 4 4 4 3 2 0 1 2 1 3 2 2 3 5 4 6 5 2 5 5 7 9 8 6 3 3 4 3 3 5 10 10 7 5 4 3 2 4 3 3 7 5 2 8 6 6 10 11 12 12 11 10 8 6 4 3 4 3 1 2 4 4 4 4 4 4 5 5 6 6 4 3 4 4 3
19 18 18 21 18 7 2 2 2 3 4 3 1 3 3 2 2 1 1 2 2 2 1 4 4 6 8 8 6 1 2 3 4 8 9 7 4 1 1 2 2 4 5 7 6 3 6 8 6 5 6 4 2 5 5 3 7 5 5 10 12 14 12 10 9 6 4 3 1 2 2 2 1 4 5 5 5 6 6 6 7 6 6 6 5 5 6 5
18 17 18 19 15 6 1 2 2 2 2 1 2 2 2 2 3 2 1 0 3 3 3 5 4 7 10 10 8 2 3 3 5 9 10 9 5 3 1 4 2 2 0 2 4 2 6 8 9 10 6 4 2 3 5 3 5 5 8 11 12 14 11 8 7 6 3 3 2 1 1 2 1 4 5 6 6 6 7 8 8 7 7 7 7 6 6 6
16 16 19 17 11 7 4 3 3 1 1 3 4 3 3 3 3 1 1 2 4 3 1 2 4 7 8 8 8 5 1 3 3 6 7 11 9 0 5 8 6 7 4 3 4 2 5 7 8 8 5 3 1 2 6 2 5 7 10 11 11 12 10 7 7 6 4 4 2 1 0 1 1 3 5 6 5 6 8 9 9 9 9 8 7 7 7 6
15 15 19 16 8 6 5 3 2 0 1 4 5 4 5 4 1 0 1 1 2 1 1 2 4 6 8 7 7 6 3 3 4 4 3 10 11 3 5 7 9 13 10 8 7 2 2 3 4 4 4 3 2 5 6 2 8 9 10 10 8 7 6 6 7 6 5 4 3 1 2 2 0 2 5 5 4 7 8 8 8 9 9 9 8 7 7 6
13 14 18 16 8 5 4 2 3 1 3 4 6 5 5 2 1 2 3 1 1 2 2 3 2 5 8 6 6 7 6 5 4 4 4 7 10 8 3 2 5 10 9 10 9 3 1 0 2 3 4 3 4 3 1 7 9 9 9 8 6 4 4 5 5 4 4 3 1 2 3 3 0 2 5 4 4 6 6 5 6 8 8 8 8 7 7 6
11 13 16 16 11 6 2 1 3 2 5 6 6 4 3 1 2 4 2 0 1 3 3 3 2 5 9 6 5 7 6 5 5 5 6 6 8 8 4 3 3 5 6 7 7 5 5 4 2 2 3 4 2 3 7 8 7 6 7 6 5 4 3 4 2 2 3 1 2 2 3 2 1 2 6 7 5 6 6 4 5 8 9 8 7 7 7 7
9 11 15 16 13 8 4 1 1 3 6 6 4 1 1 2 4 3 2 3 1 3 3 2 4 6 9 6 5 6 4 4 5 4 4 4 5 5 6 4 2 1 5 4 3 6 6 5 4 3 2 6 4 3 6 5 2 2 6 6 5 4 3 3 3 1 1 1 1 1 2 0 1 2 2 5 2 3 4 2 1 2 5 7 7 8 7 6
7 10 14 15 15 12 5 1 1 4 4 4 2 1 2 4 3 1 3 3 1 2 2 2 6 7 8 6 4 5 3 2 5 6 4 3 4 4 7 9 7 2 3 2 1 4 2 1 7 6 2 7 6 4 4 2 2 1 5 4 2 4 4 4 4 1 1 0 1 2 2 0 1 3 4 4 3 4 5 5 5 5 5 5 4 4 5 7
4 10 14 13 16 16 8 3 1 4 3 3 2 2 7 6 1 0 1 2 1 2 2 2 6 7 4 1 1 3 2 1 4 6 5 4 4 4 6 10 11 5 1 2 2 3 2 1 6 6 2 5 6 3 2 1 1 1 2 2 0 1 2 4 3 2 3 1 2 2 1 1 2 2 1 4 3 5 5 5 5 4 3 3 2 1 1 4
2 8 13 11 15 16 10 5 1 2 2 2 1 6 7 3 0 1 1 2 2 3 4 4 5 4 1 2 1 2 1 1 2 5 6 6 5 5 5 6 9 7 2 2 2 1 3 2 2 1 2 3 4 1 1 1 0 2 1 1 0 1 1 3 2 2 4 3 2 1 1 1 2 2 2 3 3 3 3 3 3 1 1 2 2 1 0 2
2 6 9 10 13 15 12 5 1 1 0 1 4 7 3 1 1 1 1 2 2 3 6 5 2 2 3 2 3 4 1 1 3 2 3 4 5 6 5 3 6 7 3 2 2 0 3 2 3 0 1 1 2 1 1 3 2 1 1 1 1 1 3 4 1 1 3 3 1 1 2 1 2 1 2 3 2 1 2 1 0 1 2 2 1 2 2 1
3 4 5 11 15 15 12 7 4 2 1 1 6 5 1 1 1 2 2 3 1 2 4 3 2 4 4 3 4 7 5 2 4 4 2 2 3 6 6 4 4 6 3 1 2 2 2 2 2 3 2 1 1 1 2 2 1 1 2 1 0 2 3 3 2 1 1 1 0 2 2 1 1 0 2 4 4 4 3 2 2 1 2 3 3 3 3 3
2 3 2 11 16 13 12 8 5 3 1 5 8 4 0 1 1 2 3 3 1 2 2 2 2 3 4 3 3 7 7 4 4 4 3 2 2 4 5 4 4 6 4 0 1 3 2 3 2 2 1 1 0 2 2 3 3 3 4 2 1 3 1 1 2 1 1 2 0 1 1 1 1 1 2 3 4 4 4 3 3 2 1 2 2 2 3 3
2 2 1 11 13 9 13 11 4 3 2 6 6 2 1 1 1 1 1 2 2 2 1 1 1 3 4 2 2 5 6 4 5 4 2 3 2 3 5 3 5 7 7 4 1 2 2 2 1 4 1 0 3 4 3 4 6 4 3 1 1 2 2 1 1 1 2 3 2 1 2 1 1 1 1 4 5 5 5 4 4 4 3 3 3 3 2 2
2 2 1 13 11 5 12 12 6 5 6 4 3 1 0 1 0 2 1 1 2 2 2 2 1 3 2 0 1 3 4 4 5 4 2 3 2 1 4 4 4 7 8 5 1 1 3 2 2 3 3 3 3 3 2 2 3 4 4 3 3 2 1 1 1 1 2 2 3 2 1 2 3 3 3 6 5 4 5 4 3 4 4 4 4 3 3 3
2 1 2 12 11 4 8 9 6 6 4 3 3 2 0 1 1 1 2 1 2 1 1 2 3 2 1 0 1 2 3 4 5 4 3 3 3 2 2 4 4 6 6 4 2 2 3 3 3 1 4 3 0 1 2 1 1 1 2 2 1 1 1 2 2 1 1 2 3 4 2 3 4 3 3 5 4 4 4 3 2 2 3 3 3 1 1 1
1 1 2 11 10 4 6 6 3 5 3 2 3 1 0 0 1 2 1 2 2 2 1 1 2 3 2 1 0 2 2 3 4 4 3 3 3 1 2 5 4 4 2 1 1 1 1 3 5 3 2 2 2 1 3 3 2 2 1 0 1 0 2 3 0 2 1 2 1 2 2 3 4 2 2 2 3 3 2 2 1 2 2 2 2 3 3 2
1 1 2 11 10 1 5 6 2 4 4 1 2 1 1 1 1 1 0 0 1 2 0 1 1 1 3 1 1 2 2 2 2 2 2 1 1 1 2 6 5 3 2 1 1 1 1 2 4 2 0 1 1 1 3 3 2 1 1 1 1 0 2 2 2 1 1 2 0 2 2 4 5 1 2 0 2 0 1 2 1 2 3 3 3 3 3 2
2 0 1 11 11 2 4 4 3 3 2 0 0 1 1 2 1 1 1 1 1 1 2 1 1 2 3 2 1 1 1 1 2 1 1 1 0 2 1 5 6 3 2 1 2 2 1 2 2 3 1 3 3 2 2 1 1 1 1 1 1 0 1 2 0 1 1 1 3 4 1 5 3 1 2 2 1 2 3 5 3 1 2 2 2 2 2 2
2 0 1 8 13 8 3 2 4 5 3 3 2 1 0 0 1 1 2 1 1 2 2 1 2 3 2 2 2 2 2 2 2 0 1 1 1 3 1 3 4 3 2 1 3 2 2 2 1 3 3 1 1 2 1 1 0 1 1 1 1 2 2 2 1 1 0 2 3 3 2 3 2 1 2 3 2 2 2 4 4 3 2 1 1 1 2 3
1 1 1 3 8 8 3 1 4 5 4 3 2 1 1 1 1 1 1 1 0 1 2 2 3 3 2 2 2 3 5 5 3 1 1 1 1 2 1 1 3 3 1 1 3 1 3 3 3 3 4 3 2 2 1 2 0 1 1 0 1 2 1 0 1 1 2 2 2 0 0 1 2 2 3 3 3 3 0 2 2 2 2 2 2 2 3 4
0 1 0 0 2 4 4 3 4 4 3 2 2 1 2 2 1 1 1 1 1 1 1 1 2 2 2 3 2 2 3 4 4 3 2 2 1 1 1 1 3 2 1 1 3 1 3 3 3 4 3 1 1 2 4 4 1 1 0 0 1 1 2 3 3 0 1 3 2 3 5 3 0 3 2 2 1 2 3 4 3 3 3 3 3 3 4 5
1 1 1 0 1 2 2 1 3 4 3 2 1 1 2 3 1 1 0 0 1 0 0 1 3 4 4 2 2 2 3 3 3 2 2 3 2 1 1 2 2 3 1 2 4 2 4 2 1 2 2 2 2 2 3 3 2 2 1 1 0 1 2 2 1 2 3 3 3 3 6 3 3 2 5 4 4 4 4 3 2 2 3 4 3 3 5 5
2 2 0 1 1 2 0 1 4 5 5 3 2 1 2 3 2 1 1 0 0 1 1 2 4 4 3 2 1 2 3 2 2 2 3 3 3 3 3 2 3 4 3 4 3 1 3 2 0 2 1 2 1 2 3 3 3 3 2 2 1 0 1 1 1 2 3 2 5 3 5 7 7 6 5 1 3 2 2 2 3 3 3 3 2 3 5 5
1 1 0 1 3 2 1 1 2 3 2 1 1 1 1 2 3 1 1 1 1 0 1 2 3 1 1 3 3 3 3 2 1 1 3 2 2 3 2 0 3 5 5 4 3 2 1 2 1 1 2 1 1 2 3 4 4 2 4 4 2 1 1 1 2 1 1 3 3 1 3 7 6 4 3 1 2 1 2 3 4 3 2 1 2 5 6 6
2 1 1 2 3 1 1 1 0 1 1 0 1 2 1 2 4 4 2 2 1 2 2 3 4 2 2 5 6 4 3 3 3 3 2 2 1 1 1 1 2 5 5 3 2 3 2 3 2 1 2 1 2 3 4 5 4 2 6 7 4 3 1 2 4 4 4 3 1 2 1 4 4 1 2 1 2 2 4 3 2 2 2 2 4 6 6 6
2 2 2 1 3 1 1 1 0 1 1 0 2 2 1 3 5 4 2 1 2 3 3 2 1 1 2 5 4 3 2 3 4 3 2 2 3 3 2 1 1 2 3 3 2 2 3 2 1 2 1 1 2 3 3 4 4 2 6 6 7 7 4 2 3 5 6 5 4 3 3 4 2 1 3 3 4 2 3 2 2 3 4 4 5 6 5 5
Wind_Direction
347 347 344 340 336 336 338 338 344 349 352 2 12 10 3 359 360 358 356 355 353 348 346 348 351 358 355 354 352 355 344 319 5 69 57 28 353 342 336 332 331 334 341 344 345 346 342 336 2 329 249 189 202 234 154 202 247 158 243 199 210 220 234 300 167 140 125 131 137 132 109 101 106 99 101 80 66 75 74 66 66 62 59 54 45 17 3 7
348 348 345 342 339 338 338 339 346 350 355 9 14 9 7 7 5 0 350 348 350 347 347 349 357 2 355 356 348 345 334 310 9 71 54 355 348 342 334 332 330 340 345 339 346 348 341 347 345 319 263 176 181 167 141 198 221 187 235 200 229 236 49 44 106 124 127 134 132 122 113 105 113 118 104 88 73 66 67 57 54 57 44 33 24 12 12 25
348 347 346 343 339 339 338 340 347 349 359 12 7 2 7 8 6 360 349 344 345 346 348 352 2 1 355 354 346 344 319 295 355 48 15 346 346 343 338 336 335 350 341 325 335 333 325 323 308 300 278 211 189 162 167 192 194 211 225 210 223 63 66 87 108 120 129 131 125 119 110 98 101 100 90 96 81 57 57 45 36 46 26 15 11 4 12 32
347 346 345 343 341 340 336 339 345 345 358 1 352 355 3 6 3 358 354 348 347 351 353 358 6 357 358 347 342 359 309 278 30 20 353 345 345 345 349 355 351 351 338 321 318 310 309 303 289 284 272 233 178 173 186 168 166 175 205 253 138 98 80 84 101 109 116 119 115 110 97 87 78 75 98 112 90 61 51 42 39 50 27 10 10 8 19 38
346 345 345 342 340 338 334 336 337 339 348 341 340 349 358 4 3 1 359 353 354 358 358 0 357 350 358 344 334 347 299 258 36 2 347 345 346 354 8 20 7 359 341 317 310 308 303 293 283 270 265 228 165 181 179 171 183 154 126 332 83 96 86 78 91 99 103 104 99 96 89 87 69 56 66 83 86 81 56 49 48 54 37 12 17 27 36 45
345 345 345 343 341 337 332 330 326 327 328 325 332 340 348 358 1 3 359 356 357 353 350 341 343 349 351 344 330 310 286 66 18 353 346 345 348 1 14 20 11 2 335 317 320 313 298 278 260 239 248 217 170 192 171 172 203 164 56 43 81 86 91 86 83 90 97 97 93 91 88 92 87 68 54 63 74 85 72 66 59 55 44 26 33 46 50 51
344 345 345 344 341 337 330 322 310 307 307 313 322 327 334 342 350 357 354 353 355 318 305 306 331 353 343 337 324 299 1 37 1 349 345 345 350 359 3 8 5 351 332 333 345 330 319 285 249 234 242 223 171 196 169 164 206 158 99 82 89 88 94 95 87 87 86 88 90 94 87 78 88 88 65 66 71 74 71 68 71 68 51 41 43 51 57 58
344 346 344 342 340 336 328 317 298 288 297 305 311 317 322 330 335 343 345 343 346 296 264 294 309 338 337 329 312 300 67 6 345 347 344 346 353 354 355 359 359 344 336 353 350 331 326 284 252 248 249 220 174 195 163 157 192 135 117 103 95 90 90 88 86 88 85 87 88 84 79 75 87 91 73 67 69 65 65 63 72 80 64 53 48 45 53 60
344 344 341 341 339 335 327 315 293 279 292 299 307 311 314 326 327 330 336 321 318 308 257 274 295 321 326 307 288 270 42 344 338 347 343 347 353 353 0 3 357 338 331 14 347 316 308 303 308 330 315 276 210 185 158 163 154 113 114 105 98 94 93 92 91 93 92 94 94 88 88 94 95 88 69 59 71 63 54 53 55 77 70 61 60 50 46 54
342 341 339 338 337 335 327 313 293 278 287 293 303 310 314 330 331 327 334 309 283 314 268 257 282 313 304 292 297 321 16 348 340 347 343 348 355 359 13 9 1 344 342 13 348 327 325 335 337 338 331 285 239 157 163 164 111 110 111 102 102 99 97 99 98 101 100 94 99 97 93 78 57 70 77 65 93 85 57 48 35 68 68 54 64 63 55 54
338 338 338 337 335 336 328 313 295 280 284 290 300 309 314 333 335 328 335 315 284 296 277 253 268 301 293 299 15 38 3 350 340 347 344 347 358 7 14 7 5 354 347 348 2 352 327 329 332 322 311 282 194 131 150 127 111 119 112 100 101 102 101 102 105 111 102 93 102 100 87 52 31 54 89 91 106 108 84 62 43 62 75 68 65 62 60 57
337 337 339 337 337 338 331 315 298 284 285 288 296 312 319 331 334 327 335 334 312 285 260 240 250 286 290 316 65 22 358 352 342 347 347 345 345 359 9 6 7 358 347 335 0 19 318 322 326 304 306 314 153 132 125 120 120 119 107 103 105 101 94 86 103 111 103 125 132 106 81 39 33 65 93 104 116 122 107 88 70 62 73 83 80 79 65 60
337 338 340 338 337 340 336 318 302 293 289 286 288 319 334 335 335 345 18 8 353 295 205 200 253 286 290 351 81 21 2 349 345 353 353 340 320 336 3 5 7 0 344 328 341 2 308 312 311 297 303 301 146 117 116 123 125 116 105 112 113 94 69 9 89 120 115 143 158 96 79 48 53 83 99 115 143 138 115 97 90 81 82 64 39 68 67 67
338 340 342 340 339 344 341 325 310 304 296 285 279 319 356 354 355 62 57 41 42 34 104 206 324 307 291 115 87 24 4 347 353 360 358 348 332 341 352 348 2 7 339 317 312 307 300 298 297 292 283 272 135 116 126 132 133 125 113 119 122 109 88 333 32 132 130 150 267 352 99 125 99 101 106 120 167 141 118 103 96 92 117 118 70 66 46 52
339 341 345 345 343 347 346 334 322 313 301 288 273 334 35 34 31 64 64 49 49 39 35 7 343 313 279 114 89 13 2 359 1 355 355 353 344 354 349 342 352 352 325 298 286 288 294 293 289 279 261 224 147 133 141 142 147 143 129 136 138 120 126 358 22 92 129 170 265 343 98 114 120 124 118 121 189 135 121 120 122 115 130 137 129 117 121 94
340 341 347 349 347 349 349 338 328 317 299 288 262 144 62 46 32 21 19 4 5 26 38 7 338 306 322 81 25 0 359 358 356 350 353 355 349 352 342 333 344 337 302 266 281 280 274 281 281 281 264 168 153 149 147 144 150 171 169 147 137 122 132 109 27 345 271 168 148 88 117 118 121 133 129 133 209 155 129 126 130 132 101 105 115 129 141 140
341 341 347 350 350 351 349 339 325 319 299 283 247 186 123 48 36 25 20 3 335 356 48 3 346 312 100 43 357 356 346 339 342 340 344 358 359 346 341 346 63 339 264 225 263 262 251 253 248 288 308 148 169 164 155 160 159 183 179 131 120 121 132 126 78 308 214 124 74 82 105 106 114 130 135 143 206 188 141 132 131 130 107 86 105 127 121 114
342 340 344 351 353 352 348 338 321 320 306 279 250 200 200 62 45 37 39 35 353 280 300 360 359 93 95 20 14 350 331 323 326 329 341 9 8 343 343 346 300 201 186 172 241 243 209 258 245 11 18 203 208 180 167 168 160 176 166 125 113 116 127 120 125 228 132 101 87 87 94 102 114 124 134 145 183 199 142 125 124 122 123 135 143 124 108 97
342 340 341 348 355 354 347 337 318 320 319 272 205 189 206 209 59 51 52 52 33 19 55 359 8 58 327 1 358 336 323 309 311 337 3 20 355 339 310 262 279 231 194 147 141 235 182 58 309 126 167 234 205 150 198 182 173 175 137 118 124 119 117 114 124 157 116 97 94 99 106 119 121 127 143 153 186 193 139 125 123 125 144 169 168 127 116 105
341 340 338 341 350 354 346 335 317 322 319 175 133 154 201 226 218 97 58 54 59 75 83 8 10 19 328 344 334 339 338 317 343 16 10 350 332 329 303 227 221 235 205 131 133 262 225 140 86 93 198 312 343 353 320 296 231 170 120 111 120 115 113 123 124 121 108 89 83 100 110 117 120 132 152 160 187 187 159 168 162 170 198 194 172 139 136 116
340 339 337 337 346 351 343 332 323 325 296 174 167 188 221 253 233 155 83 62 80 81 87 34 24 49 346 314 322 345 351 354 37 31 2 347 315 301 337 229 205 167 81 103 113 19 344 125 38 2 345 301 299 295 299 299 263 129 115 111 108 106 110 114 103 85 81 88 96 108 104 101 115 134 153 163 185 191 183 191 180 181 191 190 185 156 142 116
340 337 337 336 342 347 340 333 341 352 123 172 198 233 40 93 143 153 145 106 111 90 115 53 39 47 7 354 335 335 316 354 28 27 0 350 312 284 26 288 195 109 80 105 117 77 67 66 4 339 332 297 284 309 333 9 96 105 111 110 103 111 110 94 92 94 89 96 114 113 98 98 113 124 158 181 195 190 184 202 203 185 184 183 187 177 159 140
341 339 339 334 340 345 338 344 25 60 102 153 208 169 91 135 139 139 144 113 130 193 210 95 48 29 9 33 350 336 4 16 12 12 356 350 324 22 5 317 87 106 113 169 122 116 96 38 340 311 320 319 359 50 59 80 88 98 112 111 118 132 120 104 120 114 88 95 125 116 94 96 116 122 181 208 222 205 163 247 300 290 237 207 164 138 171 167
343 345 343 338 341 343 339 75 60 71 92 104 114 106 143 158 132 125 155 151 118 187 174 120 88 36 5 12 338 334 21 25 9 4 358 357 344 338 5 14 71 95 85 84 89 87 65 29 313 294 319 67 79 74 67 86 90 86 103 115 131 133 113 110 122 107 82 89 122 113 92 92 141 163 206 215 233 258 203 218 243 241 251 271 22 55 236 203
346 348 349 345 345 348 23 91 66 87 87 82 99 125 155 162 148 118 89 185 34 111 156 116 99 34 352 319 326 317 351 17 11 359 359 4 350 324 6 20 57 61 71 80 81 80 38 8 324 326 100 68 73 82 24 55 109 92 105 123 131 124 113 118 124 109 91 114 142 101 96 153 165 191 204 185 201 231 216 210 224 219 214 223 221 209 206 209
349 352 353 351 351 2 114 83 68 113 91 72 108 163 159 171 190 113 109 201 25 39 24 355 351 4 352 331 330 244 122 3 340 356 4 7 351 232 349 12 104 66 76 80 77 81 360 356 11 40 77 29 44 97 359 353 111 101 128 129 122 118 122 137 132 108 99 132 109 41 92 119 154 214 206 181 196 219 213 211 219 218 207 199 208 210 195 192
352 355 356 356 358 11 67 29 32 94 92 139 193 183 190 203 170 124 107 195 30 32 14 354 340 354 351 340 347 86 139 302 319 356 359 2 345 219 65 35 95 50 81 99 71 51 338 358 24 29 44 27 59 97 337 321 104 105 131 129 125 127 140 153 122 96 102 103 56 316 174 114 193 204 188 185 199 213 214 217 215 213 213 199 199 204 196 197
355 359 359 360 8 27 42 0 339 23 68 192 176 161 174 155 144 136 62 61 25 12 40 348 335 349 340 338 11 65 177 281 346 346 346 30 26 231 77 60 77 56 40 95 92 30 347 13 23 21 34 37 67 245 287 300 101 121 136 133 137 142 150 138 101 101 124 116 107 255 209 94 157 156 162 181 205 226 222 218 211 205 209 205 198 198 197 201
356 1 0 1 14 33 32 5 337 89 187 193 163 140 133 113 107 230 48 64 28 8 75 3 345 338 328 340 25 47 29 2 36 341 338 53 38 21 68 61 78 71 56 74 92 83 43 31 355 19 44 14 322 270 266 103 102 136 145 133 135 143 142 117 105 121 129 132 144 71 54 70 97 162 158 168 211 234 225 216 210 204 202 198 189 190 199 200
357 2 2 6 22 21 13 19 9 89 180 175 158 138 116 98 353 46 36 20 41 342 326 22 4 317 328 358 21 15 25 29 19 14 28 44 31 26 26 335 61 79 72 69 77 86 99 166 294 25 28 318 290 307 29 102 112 138 140 128 129 134 123 103 106 124 115 131 183 20 52 82 63 212 177 179 211 215 209 208 206 203 199 188 178 185 195 194
0 3 4 13 26 23 16 8 0 85 145 143 140 120 95 69 22 62 60 247 38 345 338 3 348 329 335 356 16 356 15 30 5 19 34 37 36 27 7 327 8 65 72 63 67 59 42 40 13 326 345 335 314 53 69 88 109 130 137 136 129 121 106 90 101 139 119 157 264 339 24 77 89 235 202 201 202 184 188 206 209 203 194 176 170 182 188 191
2 5 8 17 25 28 31 323 334 134 143 124 110 119 118 52 34 44 318 302 341 354 3 329 324 338 326 330 15 354 346 18 7 20 39 38 50 46 47 40 340 38 64 55 61 45 35 38 16 304 311 0 7 93 76 56 47 126 149 143 125 130 130 116 143 170 109 170 241 346 0 351 225 302 184 163 146 142 148 100 51 178 165 153 162 180 187 191
2 7 9 16 22 29 32 13 107 151 129 67 25 280 80 63 41 1 319 340 333 308 325 289 306 313 305 315 6 349 329 6 5 12 23 30 49 64 61 38 7 5 70 71 78 37 34 33 4 355 338 360 14 94 103 58 15 110 150 145 132 143 140 146 158 123 76 223 307 335 348 344 248 335 35 88 68 58 78 72 58 53 70 99 135 175 189 190
350 10 10 8 15 24 29 29 84 149 85 20 291 45 56 59 53 224 338 341 270 275 292 308 313 305 298 353 27 343 359 51 28 28 25 29 40 23 22 21 12 2 8 72 82 38 57 85 2 6 328 342 23 78 142 118 353 292 160 141 89 131 127 143 147 104 113 124 358 340 333 122 178 259 62 89 74 64 66 71 74 59 59 90 101 65 156 178
313 9 12 3 5 13 21 32 69 142 68 353 38 65 57 68 16 346 339 314 286 293 307 315 314 306 348 88 62 12 49 42 36 57 43 44 56 17 354 358 0 358 349 60 99 87 74 65 352 35 227 321 24 60 186 129 255 250 179 98 105 252 130 118 119 121 129 117 58 313 268 109 129 189 162 91 61 66 78 74 70 59 175 128 152 225 122 146
331 1 11 3 356 0 7 9 353 85 112 292 65 64 53 106 42 352 344 338 333 321 315 308 306 336 6 44 21 4 22 298 343 26 65 71 74 30 3 334 359 18 21 31 41 52 98 60 329 63 149 355 36 340 208 147 194 274 37 52 239 211 123 109 55 31 112 115 118 252 265 50 82 109 184 159 146 134 116 83 323 241 170 130 200 241 223 206
352 339 356 1 356 355 355 344 336 2 281 40 71 78 58 55 20 350 359 345 328 299 315 338 8 348 353 17 13 353 342 326 344 1 40 64 48 14 0 330 357 32 48 90 57 9 102 94 354 27 38 333 112 318 286 195 182 133 133 187 231 56 94 109 81 19 63 102 202 242 231 199 124 305 237 191 169 152 149 163 186 182 166 188 220 219 204 204
328 293 305 0 0 359 1 357 344 332 327 61 77 106 87 28 347 357 358 331 296 262 311 41 25 3 10 7 0 350 348 347 347 6 39 26 0 1 3 331 335 15 17 279 74 357 25 79 6 8 43 267 63 33 324 333 25 88 134 170 102 80 75 90 108 138 130 114 178 281 313 271 210 207 211 175 141 125 128 127 119 114 148 203 226 198 176 179
289 246 264 3 5 14 20 21 4 346 50 64 75 111 11 11 25 47 8 314 278 264 344 75 31 26 32 7 343 346 358 12 352 357 40 14 353 18 22 349 313 345 347 334 36 338 312 100 10 307 292 311 9 32 23 338 353 35 70 45 61 103 141 136 122 144 130 132 147 66 358 314 274 311 63 98 82 73 81 74 65 61 60 64 42 39 49 43
265 213 353 2 5 15 19 26 30 36 59 58 48 100 11 335 80 107 134 313 277 257 6 17 349 28 32 330 32 347 359 22 8 20 42 359 356 43 32 17 322 327 330 322 27 342 315 83 108 296 336 38 17 14 29 337 341 7 19 20 12 5 61 113 66 79 109 132 140 118 129 266 295 330 39 84 78 70 78 67 62 63 61 74 71 52 34 7
270 121 343 359 8 357 6 30 43 31 71 89 59 100 187 287 324 70 143 175 279 252 343 338 349 34 75 112 43 355 6 25 17 34 46 14 23 25 28 31 340 316 326 325 351 23 3 51 89 12 7 35 84 303 3 354 316 353 27 61 50 341 38 53 12 357 83 103 146 139 146 255 279 327 43 92 103 95 90 72 48 46 47 74 88 84 72 21
294 80 307 350 1 4 26 53 46 18 76 96 27 49 89 216 281 343 144 180 259 251 225 328 342 27 51 73 323 336 22 38 17 28 45 31 33 345 338 357 320 279 297 349 351 33 89 71 70 64 36 73 146 103 22 7 327 311 319 202 212 351 79 91 144 253 354 38 188 142 112 259 268 328 17 98 113 100 108 113 39 354 0 35 33 25 46 36
51 115 302 350 352 13 72 69 55 29 63 51 324 354 24 307 248 333 10 274 289 258 281 343 262 3 31 27 277 338 25 42 25 46 97 52 38 203 302 334 324 296 312 1 343 342 77 72 70 85 34 53 134 347 2 14 22 5 302 323 42 151 159 140 169 211 54 37 303 73 58 267 258 273 303 206 122 141 231 189 246 312 333 12 31 31 34 8
42 188 281 4 11 85 103 76 106 88 82 128 35 63 338 300 298 357 1 355 333 304 350 9 288 349 5 335 314 329 329 56 43 48 149 71 279 190 292 345 352 4 23 30 314 325 27 45 73 108 69 3 352 328 327 351 32 71 81 79 38 344 140 123 100 81 69 156 144 110 162 259 249 197 258 247 194 240 220 191 188 240 325 7 38 21 353 337
7 84 242 13 30 58 102 116 123 121 132 147 125 116 188 244 329 345 342 349 316 309 345 28 340 338 340 329 343 352 357 40 58 264 220 114 147 170 125 14 19 34 55 45 293 303 75 48 43 122 142 154 167 191 207 271 295 63 70 103 32 31 86 123 112 92 156 208 144 126 203 253 297 297 248 228 214 240 208 166 164 173 195 190 49 353 339 333
350 31 306 8 28 48 82 86 93 114 144 152 126 82 89 95 134 213 308 348 160 316 5 35 336 321 319 337 5 26 15 16 36 67 50 23 76 143 134 40 65 65 69 303 311 331 100 68 41 88 129 160 167 182 293 325 255 174 206 171 101 83 111 81 82 132 199 166 146 257 309 307 288 240 230 226 208 220 307 77 97 115 100 59 19 354 330 307
4 19 71 105 22 47 63 47 75 112 153 161 138 123 107 105 136 187 289 355 133 337 3 27 356 2 356 337 3 39 13 1 17 39 24 338 355 97 55 31 60 49 250 305 340 17 109 68 25 61 76 48 353 339 323 328 354 134 160 114 105 78 28 45 79 105 31 111 168 324 13 18 87 98 45 345 45 44 24 44 56 45 27 359 338 325 306 298
45 121 129 127 89 88 71 54 101 99 80 88 121 137 129 136 147 124 80 110 152 236 58 45 31 36 27 345 349 28 17 14 19 17 357 347 340 344 4 3 350 327 314 4 0 52 103 67 339 72 39 323 312 326 315 326 359 354 337 337 354 70 63 69 84 6 44 121 204 327 5 330 262 353 352 356 44 34 20 39 37 357 321 298 297 304 295 297
68 88 2 331 84 124 186 123 112 100 87 98 116 127 152 150 132 58 356 3 124 199 179 60 35 28 18 342 345 44 33 22 26 8 5 1 333 335 13 9 326 341 20 28 357 45 108 85 186 129 67 320 318 352 354 13 9 328 305 305 291 197 134 201 257 39 70 194 243 288 318 288 263 265 284 318 80 44 352 349 319 292 279 274 282 288 287 290
55 87 139 82 86 105 159 128 123 115 109 115 113 129 206 138 136 138 6 32 85 279 290 99 104 129 22 35 50 75 54 22 75 37 2 357 337 355 40 56 313 338 7 30 341 305 110 115 179 140 90 1 347 41 43 45 53 0 311 312 313 1 17 276 249 156 120 266 266 240 284 284 265 243 255 196 113 21 310 298 289 284 290 316 295 281 280 284
328 308 194 114 90 93 142 116 115 116 116 272 141 164 191 123 139 139 83 41 49 27 17 109 138 174 94 66 69 82 46 29 74 74 35 62 70 27 58 25 332 332 343 17 350 329 44 117 161 108 90 316 329 48 41 26 43 0 293 280 223 191 223 217 211 192 176 177 114 84 282 268 256 313 354 281 223 248 270 266 277 299 294 270 267 269 270 276
334 306 267 110 87 275 217 138 78 96 113 344 90 125 156 114 116 114 93 66 63 47 14 25 92 170 106 82 77 79 43 46 81 73 41 90 102 93 90 37 0 357 345 352 349 357 51 112 151 99 114 253 320 22 25 9 18 324 274 245 189 185 204 205 208 212 201 172 139 157 219 224 217 27 4 289 259 252 250 248 264 272 262 251 254 260 271 283